Time,TemperatureF,DewpointF,PressureIn,WindDirection,WindDirectionDegrees,WindSpeedMPH,WindSpeedGustMPH,Humidity,HourlyPrecipIn,Conditions,Clouds,dailyrainin,SolarRadiationWatts/m^2,SoftwareType,DateUTC
2013-04-23 00:03:00,47.0,21.0,-100.00,SSE,158,5.0,12.0,36,0.00,,,0.00,0.000000,,2013-04-23 04:03:00,
2013-04-23 00:33:00,45.0,24.0,-100.00,SSE,158,6.0,12.0,43,0.00,,,0.00,0.000000,,2013-04-23 04:33:00,
2013-04-23 00:44:00,45.0,24.0,-100.00,SSE,158,6.0,12.0,43,0.00,,,0.00,0.000000,,2013-04-23 04:44:00,
2013-04-23 00:53:00,45.0,24.0,-100.00,SSE,158,6.0,12.0,43,0.00,,,0.00,0.000000,,2013-04-23 04:53:00,
2013-04-23 01:02:00,45.0,24.0,-100.00,SSE,158,6.0,12.0,43,0.00,,,0.00,0.000000,,2013-04-23 05:02:00,
2013-04-23 01:32:00,44.0,27.0,-100.00,SSE,162,6.0,16.0,50,0.00,,,0.00,0.000000,,2013-04-23 05:32:00,
2013-04-23 01:43:00,44.0,27.0,-100.00,SSE,162,6.0,16.0,50,0.00,,,0.00,0.000000,,2013-04-23 05:43:00,
2013-04-23 01:52:00,44.0,27.0,-100.00,SSE,162,6.0,16.0,50,0.00,,,0.00,0.000000,,2013-04-23 05:52:00,
2013-04-23 02:02:00,44.0,27.0,-100.00,SSE,162,6.0,16.0,50,0.00,,,0.00,0.000000,,2013-04-23 06:02:00,
2013-04-23 02:33:00,42.0,28.0,-100.00,South,171,6.0,18.0,57,0.00,,,0.00,0.000000,,2013-04-23 06:33:00,
2013-04-23 02:42:00,42.0,28.0,-100.00,South,171,6.0,18.0,57,0.00,,,0.00,0.000000,,2013-04-23 06:42:00,
2013-04-23 02:52:00,42.0,28.0,-100.00,South,171,6.0,18.0,57,0.00,,,0.00,0.000000,,2013-04-23 06:52:00,
2013-04-23 03:02:00,42.0,28.0,-100.00,South,171,6.0,18.0,57,0.00,,,0.00,0.000000,,2013-04-23 07:02:00,
2013-04-23 03:32:00,40.0,28.0,-100.00,SSE,164,5.0,11.0,61,0.00,,,0.00,0.000000,,2013-04-23 07:32:00,
2013-04-23 03:42:00,40.0,28.0,-100.00,SSE,164,5.0,11.0,61,0.00,,,0.00,0.000000,,2013-04-23 07:42:00,
2013-04-23 03:52:00,40.0,28.0,-100.00,SSE,164,5.0,11.0,61,0.00,,,0.00,0.000000,,2013-04-23 07:52:00,
2013-04-23 04:02:00,40.0,28.0,-100.00,SSE,164,5.0,11.0,61,0.00,,,0.00,0.000000,,2013-04-23 08:02:00,
2013-04-23 04:32:00,39.0,27.0,-100.00,SSE,158,4.0,10.0,62,0.00,,,0.00,0.000000,,2013-04-23 08:32:00,
2013-04-23 04:42:00,39.0,27.0,-100.00,SSE,158,4.0,10.0,62,0.00,,,0.00,0.000000,,2013-04-23 08:42:00,
2013-04-23 04:52:00,39.0,27.0,-100.00,SSE,158,4.0,10.0,62,0.00,,,0.00,0.000000,,2013-04-23 08:52:00,
2013-04-23 05:02:00,39.0,27.0,-100.00,SSE,158,4.0,10.0,62,0.00,,,0.00,0.000000,,2013-04-23 09:02:00,
2013-04-23 05:33:00,38.0,27.0,-100.00,SSE,162,6.0,12.0,65,0.00,,,0.00,0.000000,,2013-04-23 09:33:00,
2013-04-23 05:43:00,38.0,27.0,-100.00,SSE,162,6.0,12.0,65,0.00,,,0.00,0.000000,,2013-04-23 09:43:00,
2013-04-23 05:53:00,38.0,27.0,-100.00,SSE,162,6.0,12.0,65,0.00,,,0.00,0.000000,,2013-04-23 09:53:00,
2013-04-23 06:03:00,38.0,27.0,-100.00,SSE,162,6.0,12.0,65,0.00,,,0.00,0.000000,,2013-04-23 10:03:00,
2013-04-23 06:33:00,36.0,27.0,-100.00,South,173,4.0,10.0,69,0.00,,,0.00,0.000000,,2013-04-23 10:33:00,
2013-04-23 06:43:00,36.0,27.0,-100.00,South,173,4.0,10.0,69,0.00,,,0.00,0.000000,,2013-04-23 10:43:00,
2013-04-23 06:53:00,36.0,27.0,-100.00,South,173,4.0,10.0,69,0.00,,,0.00,0.000000,,2013-04-23 10:53:00,
2013-04-23 07:03:00,36.0,27.0,-100.00,South,173,4.0,10.0,69,0.00,,,0.00,0.000000,,2013-04-23 11:03:00,
2013-04-23 07:32:00,36.0,27.0,-100.00,South,173,5.0,10.0,69,0.00,,,-99.99,11.000000,,2013-04-23 11:32:00,
2013-04-23 07:43:00,36.0,27.0,-100.00,South,173,5.0,10.0,69,0.00,,,-99.99,11.000000,,2013-04-23 11:43:00,
2013-04-23 07:53:00,36.0,27.0,-100.00,South,173,5.0,10.0,69,0.00,,,-99.99,11.000000,,2013-04-23 11:53:00,
2013-04-23 08:02:00,36.0,27.0,-100.00,South,173,5.0,10.0,69,0.00,,,-99.99,11.000000,,2013-04-23 12:02:00,
2013-04-23 09:32:00,44.0,30.0,-100.00,South,172,5.0,13.0,57,-99.99,,,0.00,234.000000,,2013-04-23 13:32:00,
2013-04-23 09:42:00,44.0,30.0,-100.00,South,172,5.0,13.0,57,-99.99,,,0.00,234.000000,,2013-04-23 13:42:00,
2013-04-23 09:52:00,44.0,30.0,-100.00,South,172,5.0,13.0,57,-99.99,,,0.00,234.000000,,2013-04-23 13:52:00,
2013-04-23 10:02:00,44.0,30.0,-100.00,South,172,5.0,13.0,57,-99.99,,,0.00,234.000000,,2013-04-23 14:02:00,
2013-04-23 10:32:00,50.0,31.0,-100.00,South,179,6.0,11.0,47,0.00,,,0.00,652.000000,,2013-04-23 14:32:00,
2013-04-23 10:42:00,50.0,31.0,-100.00,South,179,6.0,11.0,47,0.00,,,0.00,652.000000,,2013-04-23 14:42:00,
2013-04-23 10:52:00,50.0,31.0,-100.00,South,179,6.0,11.0,47,0.00,,,0.00,652.000000,,2013-04-23 14:52:00,
2013-04-23 11:01:00,50.0,31.0,-100.00,South,179,6.0,11.0,47,0.00,,,0.00,652.000000,,2013-04-23 15:01:00,
2013-04-23 11:32:00,55.0,31.0,-100.00,SSE,157,5.0,12.0,40,0.00,,,0.00,835.000000,,2013-04-23 15:32:00,
2013-04-23 11:43:00,55.0,31.0,-100.00,SSE,157,5.0,12.0,40,0.00,,,0.00,835.000000,,2013-04-23 15:43:00,
2013-04-23 11:53:00,55.0,31.0,-100.00,SSE,157,5.0,12.0,40,0.00,,,0.00,835.000000,,2013-04-23 15:53:00,
2013-04-23 12:03:00,55.0,31.0,-100.00,SSE,157,5.0,12.0,40,0.00,,,0.00,835.000000,,2013-04-23 16:03:00,
2013-04-23 12:34:00,60.0,31.0,-100.00,WNW,286,5.0,11.0,33,0.00,,,0.00,992.000000,,2013-04-23 16:34:00,
2013-04-23 12:43:00,60.0,31.0,-100.00,WNW,286,5.0,11.0,33,0.00,,,0.00,992.000000,,2013-04-23 16:43:00,
2013-04-23 12:53:00,60.0,31.0,-100.00,WNW,286,5.0,11.0,33,0.00,,,0.00,992.000000,,2013-04-23 16:53:00,
2013-04-23 13:02:00,60.0,31.0,-100.00,WNW,286,5.0,11.0,33,0.00,,,0.00,992.000000,,2013-04-23 17:02:00,
2013-04-23 13:33:00,64.0,30.0,-100.00,WNW,287,4.0,10.0,28,0.00,,,0.00,1035.000000,,2013-04-23 17:33:00,
2013-04-23 13:43:00,64.0,30.0,-100.00,WNW,287,4.0,10.0,28,0.00,,,0.00,1035.000000,,2013-04-23 17:43:00,
2013-04-23 13:53:00,64.0,30.0,-100.00,WNW,287,4.0,10.0,28,0.00,,,0.00,1035.000000,,2013-04-23 17:53:00,
2013-04-23 14:02:00,64.0,30.0,-100.00,WNW,287,4.0,10.0,28,0.00,,,0.00,1035.000000,,2013-04-23 18:02:00,
2013-04-23 15:32:00,68.0,30.0,-100.00,South,181,7.0,13.0,24,-99.99,,,0.00,1032.000000,,2013-04-23 19:32:00,
2013-04-23 15:42:00,68.0,30.0,-100.00,South,181,7.0,13.0,24,-99.99,,,0.00,1032.000000,,2013-04-23 19:42:00,
2013-04-23 15:52:00,68.0,30.0,-100.00,South,181,7.0,13.0,24,-99.99,,,0.00,1032.000000,,2013-04-23 19:52:00,
2013-04-23 16:02:00,68.0,30.0,-100.00,South,181,7.0,13.0,24,-99.99,,,0.00,1032.000000,,2013-04-23 20:02:00,
2013-04-23 16:32:00,70.0,28.0,-100.00,SSE,164,7.0,14.0,21,0.00,,,0.00,910.000000,,2013-04-23 20:32:00,
2013-04-23 16:42:00,70.0,28.0,-100.00,SSE,164,7.0,14.0,21,0.00,,,0.00,910.000000,,2013-04-23 20:42:00,
2013-04-23 16:52:00,70.0,28.0,-100.00,SSE,164,7.0,14.0,21,0.00,,,0.00,910.000000,,2013-04-23 20:52:00,
2013-04-23 17:02:00,70.0,28.0,-100.00,SSE,164,7.0,14.0,21,0.00,,,0.00,910.000000,,2013-04-23 21:02:00,
2013-04-23 17:33:00,72.0,29.0,-100.00,West,263,5.0,15.0,20,0.00,,,0.00,687.000000,,2013-04-23 21:33:00,
2013-04-23 17:43:00,72.0,29.0,-100.00,West,263,5.0,15.0,20,0.00,,,0.00,687.000000,,2013-04-23 21:43:00,
2013-04-23 17:53:00,72.0,29.0,-100.00,West,263,5.0,15.0,20,0.00,,,0.00,687.000000,,2013-04-23 21:53:00,
2013-04-23 18:03:00,72.0,29.0,-100.00,West,263,5.0,15.0,20,0.00,,,0.00,687.000000,,2013-04-23 22:03:00,
2013-04-23 18:33:00,70.0,28.0,-100.00,SSW,197,7.0,16.0,21,0.00,,,0.00,453.000000,,2013-04-23 22:33:00,
2013-04-23 18:42:00,70.0,28.0,-100.00,SSW,197,7.0,16.0,21,0.00,,,0.00,453.000000,,2013-04-23 22:42:00,
2013-04-23 18:52:00,70.0,28.0,-100.00,SSW,197,7.0,16.0,21,0.00,,,0.00,453.000000,,2013-04-23 22:52:00,
2013-04-23 19:03:00,70.0,28.0,-100.00,SSW,197,7.0,16.0,21,0.00,,,0.00,453.000000,,2013-04-23 23:03:00,
2013-04-23 19:32:00,65.0,28.0,-100.00,South,171,5.0,15.0,25,0.00,,,0.00,180.000000,,2013-04-23 23:32:00,
2013-04-23 19:42:00,65.0,28.0,-100.00,South,171,5.0,15.0,25,0.00,,,0.00,180.000000,,2013-04-23 23:42:00,
2013-04-23 19:52:00,65.0,28.0,-100.00,South,171,5.0,15.0,25,0.00,,,0.00,180.000000,,2013-04-23 23:52:00,
2013-04-23 20:02:00,65.0,28.0,-100.00,South,171,5.0,15.0,25,0.00,,,0.00,180.000000,,2013-04-24 00:02:00,
2013-04-23 21:32:00,59.0,30.0,-100.00,SSE,163,5.0,10.0,33,-99.99,,,0.00,0.000000,,2013-04-24 01:32:00,
2013-04-23 21:43:00,59.0,30.0,-100.00,SSE,163,5.0,10.0,33,-99.99,,,0.00,0.000000,,2013-04-24 01:43:00,
2013-04-23 21:52:00,59.0,30.0,-100.00,SSE,163,5.0,10.0,33,-99.99,,,0.00,0.000000,,2013-04-24 01:52:00,
2013-04-23 22:02:00,59.0,30.0,-100.00,SSE,163,5.0,10.0,33,-99.99,,,0.00,0.000000,,2013-04-24 02:02:00,
2013-04-23 22:07:00,58.0,31.0,-100.00,SSE,166,6.0,14.0,35,0.00,,,0.00,0.000000,,2013-04-24 02:07:00,
2013-04-23 22:42:00,58.0,31.0,-100.00,SSE,166,6.0,14.0,35,0.00,,,0.00,0.000000,,2013-04-24 02:42:00,
2013-04-23 23:02:00,58.0,31.0,-100.00,SSE,166,6.0,14.0,35,0.00,,,0.00,0.000000,,2013-04-24 03:02:00,
2013-04-23 23:54:00,56.0,33.0,-100.00,SSE,168,7.0,16.0,42,0.00,,,0.00,0.000000,,2013-04-24 03:54:00,